Location: Bermeries
(50.2863°N, 3.7551°E)
Time: 05:29:49
(UTC+00:00)

ALOS - Pass Details

Date: 23 May 2024
Orbit: 672 x 676 km, 98.0° (Epoch: 19 June)

Event Time Altitude Azimuth Distance (km) Brightness Sun altitude
Rises 02:58:29 0° 11° (NNE) 3,041 6.7 -6.9°
Reaches altitude 10° 03:00:45 10° 9° (N) 2,121 5.7 -6.6°
Maximum altitude 03:05:20 66° 288° (WNW) 737 2.4 -6.1°
Drops below altitude 10° 03:09:54 10° 207° (SSW) 2,103 4.2 -5.5°
Enters shadow 03:11:07 - 205° (SSW) 2,598 4.7 -5.4°
